Lapse_Rate
-2.6 -3.0 -3.2 -3.4 -3.5 -3.5 -3.6 -3.7 -3.7 -3.9 -4.2 -4.6 -5.0 -5.0 -5.5 -6.2 -6.7 -4.9 0.0 1.9 1.4 0.2 1.2 2.3 2.1 3.2 4.2 4.7 4.9 4.2 6.5 6.5 6.5 6.5 6.5 5.7 6.5 7.2 6.9 7.2 7.2 7.3 5.7 6.7 6.9
-2.7 -2.9 -3.3 -3.5 -3.5 -3.7 -3.9 -3.9 -3.9 -4.0 -4.4 -4.6 -4.8 -5.1 -5.0 -5.6 -5.5 -2.2 -0.6 0.4 0.2 0.3 3.6 3.3 4.7 4.3 4.0 4.8 4.9 5.8 6.5 6.5 6.5 6.4 6.5 6.3 6.5 6.9 6.8 6.7 6.8 6.8 6.3 6.9 7.3
-2.7 -3.0 -3.3 -3.6 -3.6 -3.7 -3.9 -4.1 -4.1 -4.3 -4.5 -4.8 -4.8 -4.8 -4.7 -5.2 0.1 1.5 1.5 0.0 -0.7 -0.2 3.8 4.6 5.8 6.2 5.7 5.4 5.0 5.6 6.5 6.5 6.2 5.4 5.9 6.2 6.4 6.3 6.5 6.5 6.6 6.3 6.0 6.8 7.1
-2.9 -3.1 -3.4 -3.6 -3.8 -4.0 -4.0 -4.2 -4.4 -4.7 -4.8 -4.8 -4.9 -4.6 -4.4 -3.9 6.5 5.6 0.8 -0.4 -0.8 0.2 4.0 5.2 5.5 5.2 6.4 6.5 4.9 6.5 6.2 5.9 5.6 5.7 6.1 6.4 5.7 6.3 6.4 6.2 6.6 6.0 6.3 7.0 7.2
-3.0 -3.3 -3.4 -3.5 -3.8 -4.1 -4.2 -4.6 -4.8 -5.1 -5.2 -5.1 -4.8 -4.4 -3.4 3.2 1.7 3.1 1.2 -0.0 0.1 1.2 3.3 5.7 5.4 5.0 6.5 6.2 5.6 6.5 6.5 5.7 5.2 4.6 5.7 5.9 6.2 6.4 6.2 6.7 7.2 6.9 7.0 7.4 7.4
-2.9 -3.3 -3.7 -3.9 -3.8 -3.9 -4.5 -4.9 -5.3 -5.5 -5.4 -5.2 -5.1 -4.3 -0.4 6.0 3.6 2.8 1.4 0.1 1.8 2.3 3.3 5.2 4.5 4.1 5.8 6.2 6.5 5.8 6.0 6.0 4.7 5.0 5.3 6.2 6.3 5.3 6.8 7.2 7.4 7.3 7.2 7.2 7.2
-2.4 -2.9 -3.4 -3.8 -4.1 -4.1 -4.6 -5.4 -5.5 -5.6 -5.6 -5.4 -5.5 -3.3 1.3 2.7 3.8 1.7 2.0 2.0 2.7 2.4 3.8 3.9 4.5 6.2 5.4 6.5 5.5 5.4 6.5 6.5 6.4 6.1 6.4 5.8 6.5 6.5 6.8 7.4 7.2 7.3 7.4 6.9 6.7
-2.4 -2.6 -3.2 -3.7 -4.1 -4.7 -5.3 -5.8 -6.0 -5.6 -5.1 -5.4 -5.3 -2.6 2.0 2.2 1.3 1.2 2.7 3.9 4.2 4.1 4.8 5.1 4.8 5.5 5.6 4.9 5.7 6.5 6.5 6.5 6.5 6.3 6.1 5.8 6.5 6.5 7.0 6.9 6.8 7.2 7.4 7.2 6.5
-2.6 -2.9 -3.3 -3.9 -4.3 -4.9 -5.9 -6.2 -5.7 -4.6 -4.9 -4.3 -3.2 -0.2 3.1 3.8 3.8 3.7 4.1 5.1 4.2 4.0 4.8 6.8 6.7 4.9 5.7 6.5 6.5 6.5 6.5 6.5 6.5 6.1 6.5 6.5 6.5 6.5 7.0 6.6 6.5 6.7 7.0 7.1 5.9
-2.4 -2.9 -3.5 -3.9 -4.3 -5.0 -6.4 -6.1 -5.8 -4.9 -2.9 -1.0 1.9 3.6 3.0 6.1 6.3 6.9 2.8 4.6 6.0 4.7 6.7 6.4 3.8 6.5 6.5 6.5 6.5 6.5 6.5 6.5 6.5 6.5 6.5 6.5 6.5 6.5 6.7 6.6 6.5 6.6 6.6 6.8 6.5
-2.2 -2.8 -3.3 -4.0 -4.4 -5.3 -6.5 -5.7 2.0 2.4 2.0 4.6 4.7 5.7 6.1 5.0 6.2 6.2 5.5 4.6 6.3 5.1 6.5 5.6 6.5 6.5 6.5 6.5 6.5 6.5 6.5 6.5 6.5 6.5 6.5 6.5 6.5 6.5 6.5 6.5 6.4 6.4 6.4 6.5 6.5
-1.6 -2.7 -3.0 -4.0 -4.5 -5.5 -6.3 1.7 6.1 5.7 5.0 3.7 3.7 4.8 5.2 6.7 6.7 5.5 6.1 5.0 5.6 6.5 6.6 6.5 6.5 6.5 6.5 6.5 6.5 6.5 6.5 6.5 6.5 6.5 6.5 6.5 6.5 6.5 6.5 6.4 6.5 6.5 6.4 6.6 6.5
-1.6 -2.2 -2.6 -4.0 -5.0 -5.1 -2.2 1.2 1.9 3.0 5.3 5.1 4.8 4.9 4.4 4.9 6.0 5.0 5.6 4.7 6.5 6.5 6.5 6.5 6.5 6.5 6.5 6.5 6.5 6.5 6.5 6.5 6.5 6.5 6.5 6.5 6.5 6.5 6.5 6.1 6.4 6.5 6.5 6.6 5.6
-1.2 -1.6 -2.5 -4.1 -2.1 -5.5 -1.6 2.0 -0.4 0.2 6.5 6.5 6.0 5.4 5.9 5.4 6.2 5.7 4.7 5.2 6.4 6.5 6.5 6.5 6.5 6.5 6.5 6.5 6.5 6.5 6.5 6.5 6.5 6.5 6.5 6.5 6.5 6.5 6.5 6.5 6.5 6.2 6.1 6.1 5.1
-1.0 -0.9 -1.8 -1.8 -4.2 -4.3 2.4 -2.5 -1.7 1.7 6.5 6.5 6.2 5.8 5.2 5.7 5.4 5.7 5.5 5.7 6.5 6.5 6.5 6.5 6.5 6.5 6.5 6.5 6.5 6.5 6.5 6.5 6.5 6.5 6.5 6.5 6.5 6.5 6.5 6.5 6.5 6.3 6.3 6.4 5.3
-1.1 -1.5 -1.5 -2.7 -4.1 -5.3 -3.9 -3.9 -0.0 6.5 6.5 6.5 6.2 6.5 6.5 6.1 5.9 5.9 5.6 6.1 4.3 6.5 6.5 6.5 5.6 6.5 6.5 6.5 6.5 6.5 6.5 6.5 6.5 6.5 6.5 6.5 6.5 6.5 6.5 6.5 6.5 6.3 6.3 6.5 5.7
-1.1 -2.4 -2.5 -1.4 -2.6 -3.0 -3.0 1.6 6.5 6.5 6.5 6.5 6.5 6.5 6.5 6.5 6.5 6.5 6.5 6.5 6.5 6.5 6.5 6.5 6.5 6.5 6.4 6.5 6.5 6.5 6.5 6.5 6.5 6.5 6.5 6.5 6.5 6.5 6.5 6.5 6.5 6.5 6.2 6.4 6.4
-1.5 -3.1 -4.6 -4.0 -4.8 -3.1 -0.4 6.0 6.5 6.5 6.5 6.5 6.5 6.5 6.5 6.5 6.5 6.5 6.5 6.5 6.5 6.5 6.5 6.5 6.5 6.5 6.5 6.5 6.5 6.5 6.5 6.5 6.5 6.5 6.5 6.5 6.5 6.5 6.5 6.2 6.2 6.1 6.3 6.5 6.4
-2.0 -4.8 -5.4 -5.6 -5.1 -4.3 2.5 6.5 6.5 6.5 6.5 6.5 6.5 6.5 6.5 6.5 6.5 6.5 6.5 6.5 6.5 6.5 6.5 6.5 6.5 6.5 6.5 6.5 6.5 6.5 6.5 6.5 6.5 6.5 6.5 6.5 6.5 6.5 6.5 6.5 6.2 5.9 6.0 6.0 6.4
-1.4 -4.2 -4.5 -0.9 -1.5 0.3 5.6 6.5 6.5 6.5 6.5 6.5 6.5 6.5 6.5 6.5 6.5 6.5 6.5 6.5 6.5 6.5 6.6 6.5 6.5 6.5 6.5 6.3 6.5 6.5 6.5 6.5 6.5 6.5 6.5 6.5 6.5 6.5 6.5 6.5 6.5 6.6 6.0 5.9 6.2
-2.6 0.1 1.6 -0.5 0.8 2.7 6.5 6.5 6.5 5.2 5.9 6.5 6.5 6.5 6.5 6.5 6.5 6.5 6.5 6.5 6.5 6.5 6.5 6.5 6.5 6.5 6.5 6.5 6.5 6.5 6.5 6.5 6.5 6.5 6.5 6.5 6.5 6.5 6.5 6.5 6.5 6.5 6.0 5.8 5.1
-0.5 6.3 3.0 2.8 5.7 5.3 6.5 6.5 5.3 6.4 5.9 6.5 6.5 6.5 6.5 6.5 6.5 6.5 6.5 6.5 5.7 6.5 6.5 6.5 6.5 6.5 6.5 6.5 6.5 6.5 6.5 6.5 6.5 6.5 6.5 6.5 6.5 6.5 6.5 6.5 6.1 6.0 5.6 3.2 2.9
6.1 1.9 0.7 4.4 6.5 6.5 6.6 6.5 6.5 6.5 6.5 6.5 6.5 6.5 6.5 6.5 6.5 6.5 6.5 6.4 6.0 6.5 6.5 6.5 6.5 6.5 6.5 6.5 6.5 6.5 6.5 6.5 6.5 6.5 6.5 6.5 6.5 6.5 6.5 6.5 4.8 4.9 3.7 2.2 1.7
5.5 6.5 2.8 2.3 3.2 6.5 6.5 6.5 6.5 6.3 6.5 6.3 6.5 6.4 6.5 6.5 6.5 6.5 6.5 6.5 5.7 6.5 5.0 6.1 6.5 6.5 6.5 6.5 6.5 6.5 6.5 6.5 6.5 6.5 6.5 6.5 6.5 6.5 6.5 6.5 6.2 3.9 3.7 2.2 2.0
5.1 5.7 5.8 6.5 6.3 6.5 6.5 6.5 6.5 6.5 6.3 5.7 6.5 6.5 6.5 6.5 6.5 6.5 6.5 6.5 6.4 5.1 6.5 6.5 6.5 6.5 6.5 6.5 6.5 6.5 6.5 6.5 6.5 6.5 6.5 6.5 6.5 6.5 6.5 6.5 5.7 2.4 2.0 2.2 1.6
5.1 5.4 4.8 5.4 5.3 6.5 6.5 6.5 6.5 6.5 6.5 6.5 6.5 6.5 6.5 6.5 6.5 6.5 6.5 6.5 6.5 6.5 6.5 6.5 6.5 6.5 6.5 6.5 6.5 6.5 6.5 6.5 6.5 6.5 6.5 6.5 6.5 6.5 5.8 4.9 5.0 2.9 1.8 1.8 0.5
5.0 4.9 5.5 5.9 6.5 6.5 6.5 6.5 6.5 6.5 6.2 6.3 6.4 6.5 6.5 6.5 6.2 5.3 5.5 5.6 5.9 6.5 6.5 6.5 6.5 6.5 6.5 6.5 6.5 6.5 6.5 6.5 6.5 6.5 6.5 6.5 6.5 6.5 6.5 6.5 5.1 3.1 2.4 1.6 0.2
Wind_Speed
24 25 25 26 26 24 23 23 22 21 19 19 20 17 18 19 20 1 7 10 8 10 9 7 5 6 5 5 6 4 4 2 6 5 5 9 5 7 5 11 4 5 8 11 17
25 25 25 26 26 26 25 24 24 23 21 18 19 18 15 15 4 7 12 13 13 16 6 8 5 6 3 2 1 4 5 8 7 8 10 13 14 14 6 11 3 11 14 17 18
26 27 27 27 26 27 26 25 25 24 21 20 17 17 15 10 5 8 3 18 16 13 6 6 4 4 2 4 5 6 8 9 7 7 20 15 12 3 18 7 10 23 21 21 17
28 27 27 28 28 27 26 26 27 25 23 19 17 15 15 2 6 2 3 3 14 10 5 5 5 5 3 4 4 5 13 7 8 8 13 18 9 7 7 4 17 19 22 20 18
30 30 29 28 28 29 28 27 26 26 24 20 14 12 4 2 11 1 3 6 9 9 8 5 5 6 4 5 5 7 4 11 10 9 13 10 9 7 5 12 17 19 20 20 18
30 31 30 30 29 29 29 28 27 26 24 19 11 9 2 5 5 6 4 6 5 6 8 6 7 7 2 4 1 4 6 11 9 8 6 12 7 6 8 15 18 21 20 19 19
29 30 32 32 31 31 29 30 30 29 24 15 6 3 2 16 3 5 1 3 3 8 6 6 3 1 2 7 4 14 7 8 3 3 6 14 4 7 17 18 18 19 17 18 18
32 31 31 32 33 33 31 30 32 28 16 6 6 2 7 5 6 7 5 5 3 3 3 4 7 4 5 5 5 7 5 10 4 6 8 6 4 12 17 19 19 17 16 16 17
31 33 33 32 32 34 34 35 27 8 5 6 2 2 9 7 4 5 6 5 5 4 4 4 3 6 3 5 5 6 14 4 5 8 4 2 5 15 17 16 16 15 16 15 13
30 31 33 33 33 33 36 31 9 3 2 4 5 2 5 3 4 2 4 5 3 5 3 5 2 3 3 5 7 13 6 8 13 15 7 6 6 19 19 17 18 16 15 15 14
31 32 33 34 33 31 19 5 4 3 2 6 8 8 20 9 5 4 3 5 3 4 7 4 4 7 11 8 7 11 4 15 12 7 5 7 10 21 20 16 16 16 15 15 15
31 32 34 36 35 35 1 3 2 3 11 12 20 16 19 3 6 16 7 7 6 7 5 2 8 10 7 6 8 5 5 7 3 7 6 3 6 18 21 22 21 19 17 18 16
31 31 32 36 39 3 3 6 5 4 4 9 11 10 10 12 10 15 9 5 5 6 6 7 5 8 7 5 7 5 6 5 7 9 6 9 3 9 13 9 13 15 16 14 18
31 32 30 36 3 5 5 2 3 4 3 8 5 7 8 10 7 11 10 7 3 11 6 6 8 8 5 5 7 3 9 8 9 16 7 7 5 9 14 15 13 14 14 16 17
31 32 28 16 7 4 4 9 7 3 5 5 5 1 4 14 5 9 7 6 13 6 7 8 7 7 5 7 7 9 7 8 9 15 6 4 4 6 12 11 20 20 19 18 17
32 34 26 3 4 9 15 11 1 5 8 7 3 3 4 4 6 2 7 5 6 6 3 11 4 6 8 6 8 3 4 7 5 5 5 12 7 5 12 27 27 17 18 20 19
35 40 21 6 5 4 5 4 3 4 4 5 4 5 3 1 9 4 7 10 11 8 6 3 8 4 4 5 4 5 7 3 3 1 5 8 4 9 19 25 25 26 21 22 19
40 42 7 6 16 9 2 4 5 7 8 6 6 8 3 2 5 4 6 12 8 5 6 6 9 9 4 9 8 7 10 7 7 5 6 5 7 10 15 22 22 16 20 19 21
35 4 4 4 13 4 4 3 8 6 4 3 5 4 4 4 5 5 7 14 15 11 9 7 8 5 6 7 11 5 5 9 6 1 3 4 6 7 7 11 17 18 17 19 22
8 5 4 2 14 3 4 7 6 5 5 4 1 2 2 3 7 6 4 6 12 12 7 9 2 7 8 5 6 13 7 2 2 6 5 4 4 6 8 8 11 13 17 20 19
3 5 3 5 2 4 4 8 7 7 7 4 2 5 5 6 6 2 8 10 11 14 14 8 6 8 6 8 10 2 2 4 5 4 7 4 6 8 8 9 17 20 23 18 17
4 4 4 2 1 1 4 7 4 5 4 4 4 6 5 6 7 5 10 11 12 17 13 10 7 11 12 5 4 7 11 10 8 5 1 4 7 5 9 9 12 13 14 10 12
7 4 5 3 2 3 6 4 2 2 7 4 5 4 6 10 6 6 10 21 18 20 18 9 5 5 7 4 1 5 6 5 4 4 8 7 6 1 4 6 10 11 10 11 13
3 4 4 3 1 1 5 6 4 4 6 8 7 7 9 4 8 8 15 15 14 15 27 17 5 15 14 9 6 6 6 7 8 5 6 6 5 4 7 8 8 9 11 14 16
2 4 2 4 3 6 3 4 5 3 4 7 4 11 8 8 5 5 11 10 11 8 8 15 11 8 20 15 6 6 6 7 7 9 9 8 10 10 12 13 14 14 9 12 13
2 3 5 4 4 4 2 3 3 2 4 7 7 10 8 7 5 3 6 6 6 8 7 6 7 9 8 12 13 10 14 12 14 6 4 8 7 9 14 5 5 11 12 10 10
2 3 0 5 5 3 3 5 9 12 7 10 9 5 4 4 6 8 10 12 8 4 5 1 9 6 17 6 7 5 8 16 7 1 7 6 10 6 4 8 12 12 14 14 10
Wind_Direction
354 352 349 345 343 342 340 337 336 337 336 333 328 326 321 318 315 273 246 221 186 151 176 137 215 182 185 205 198 146 51 168 168 169 145 158 136 190 97 136 143 171 139 146 150
352 349 347 344 340 339 337 334 333 333 331 332 328 322 322 329 305 262 236 207 180 149 170 188 191 177 190 213 220 109 134 222 184 167 158 178 158 165 131 166 93 109 116 143 152
349 346 344 341 339 335 334 331 327 327 327 326 325 319 319 326 310 250 192 213 204 172 197 161 128 146 161 176 193 192 203 207 178 185 165 159 170 163 146 196 184 151 147 157 163
345 343 341 339 337 334 331 328 324 322 321 322 320 318 317 272 290 280 354 208 184 172 180 157 141 146 158 213 233 181 231 179 158 144 142 161 136 117 163 229 158 151 151 160 170
341 339 337 337 335 331 328 324 320 317 316 316 315 319 320 308 249 4 305 135 135 151 168 150 144 161 181 201 250 208 168 167 142 130 138 134 142 134 184 137 141 148 156 167 177
339 336 334 332 332 331 326 321 317 314 312 307 302 311 243 264 250 339 195 140 159 151 157 158 194 199 201 250 253 154 137 127 124 161 134 122 124 98 157 144 146 157 165 173 179
337 334 331 330 328 327 324 318 315 312 306 291 263 262 208 238 297 335 305 211 130 168 155 194 180 22 98 319 267 128 97 77 101 168 119 113 65 154 152 155 152 163 170 176 186
334 332 330 328 327 323 321 317 314 312 301 248 200 200 242 254 280 285 181 281 154 169 200 190 161 177 158 264 43 96 38 141 227 171 173 86 190 157 163 163 165 169 176 184 192
332 331 329 328 325 323 320 316 315 333 96 158 183 194 266 306 254 263 165 217 116 153 244 274 182 185 129 105 33 52 171 212 182 207 139 116 132 174 171 173 175 180 183 188 192
332 330 326 326 324 324 321 307 274 19 171 208 256 325 277 302 322 293 220 155 150 136 175 196 116 139 61 115 176 180 189 208 170 201 183 201 169 165 177 175 182 189 195 198 194
332 329 325 324 324 324 332 347 3 351 190 234 238 260 286 276 272 270 207 121 124 127 162 203 144 194 197 185 146 152 186 204 203 179 130 191 153 175 181 185 189 193 197 203 208
330 328 326 324 322 321 257 6 43 128 296 235 244 240 245 71 306 288 149 145 147 197 149 85 213 211 185 148 134 142 178 204 322 166 96 171 175 179 184 194 191 188 196 199 204
327 326 328 325 318 334 273 236 34 19 249 275 226 221 216 159 217 252 155 164 159 183 185 173 229 155 182 159 145 163 175 193 187 153 43 116 12 204 214 214 211 204 203 199 190
327 325 330 334 358 333 269 336 330 194 331 278 271 266 161 145 229 217 182 146 198 198 157 216 246 167 176 196 137 239 202 214 136 158 194 168 217 220 211 215 217 213 204 201 193
324 320 329 331 289 297 287 324 336 92 330 261 275 337 185 168 158 216 180 153 196 199 144 233 204 188 175 194 145 230 154 199 172 183 123 215 104 253 167 219 225 214 209 203 195
323 315 327 333 245 247 315 309 65 48 253 305 302 337 114 240 194 127 153 154 154 205 193 210 216 175 193 218 172 217 103 40 51 127 188 200 165 239 181 214 224 216 210 200 195
321 311 306 260 233 147 328 2 71 169 322 277 316 344 146 284 214 183 164 184 179 175 214 175 239 215 160 239 133 96 81 330 336 9 214 183 145 235 210 216 215 204 203 200 194
322 309 250 201 227 277 45 59 207 221 244 305 321 341 353 145 250 215 168 198 231 120 182 171 228 193 197 187 178 180 161 164 190 203 225 140 202 238 212 221 216 210 206 195 196
324 314 270 246 186 149 101 178 206 203 221 291 336 359 319 38 12 166 211 212 210 181 188 163 253 279 211 189 165 208 161 197 140 358 92 216 275 328 321 220 200 200 190 202 200
321 322 275 83 153 116 99 229 219 224 343 20 203 225 291 16 11 35 297 211 220 184 170 213 254 215 235 171 231 203 167 102 1 168 232 238 235 217 219 205 203 194 200 204 199
8 341 280 158 136 49 184 220 238 245 284 224 252 269 253 304 200 235 240 281 244 219 195 158 157 264 158 196 205 127 176 70 132 143 174 223 256 214 225 188 187 197 207 192 188
11 326 345 59 19 244 191 200 225 266 327 282 270 257 251 273 266 255 251 240 255 212 182 200 176 230 227 226 188 184 201 182 207 240 191 167 259 229 220 193 189 200 196 185 182
319 265 299 142 221 263 296 296 291 234 238 223 252 238 336 294 291 223 267 275 259 221 196 171 205 206 323 331 96 181 187 173 124 97 184 157 249 273 177 176 188 178 188 185 189
300 319 308 26 354 42 358 274 259 251 254 254 243 242 259 252 208 284 291 285 300 207 200 158 143 204 223 217 161 186 186 195 154 139 168 210 197 245 215 186 205 200 188 192 198
221 255 272 308 325 328 225 278 283 269 255 265 256 213 207 205 226 240 275 304 332 27 217 167 191 178 225 215 189 218 207 204 172 177 171 211 191 212 205 200 204 200 182 187 199
305 350 341 287 295 301 220 250 274 338 272 285 218 201 199 184 188 252 337 309 255 322 358 175 227 156 228 210 197 230 246 210 228 160 125 141 217 216 211 89 129 194 193 196 186
295 315 93 288 308 333 233 345 301 315 260 233 283 284 225 259 283 182 231 246 248 239 312 171 186 141 224 181 170 219 222 195 157 59 143 148 219 167 164 196 199 205 199 196 189